Location: Newark
(45.2500°N, 7.5833°E)
Time: 07:03:23
(UTC+00:00)

Vanguard 3 - Pass Details

Date: 27 January 2020
Orbit: 508 x 3263 km, 33.3° (Epoch: 20 February)

Event Time Altitude Azimuth Distance (km) Brightness Sun altitude
Rises 17:45:32 0° 249° (WSW) 7,023 13.8 -13.5°
Reaches altitude 10° 17:50:13 10° 246° (WSW) 6,134 12.9 -14.3°
Maximum altitude 18:09:14 55° 176° (S) 3,470 10.3 -17.6°
Enters shadow 18:21:23 19° 109° (ESE) 4,416 10.3 -19.7°
Drops below altitude 10° 18:24:09 10° 105° (ESE) 4,930 - -20.2°
Sets 18:27:26 0° 100° (E) 5,623 - -20.8°
